RH
31 31 33 46 52 51 51 49 57 61 59 59 52 49 47 47 47 44 44 45 44 43 41 39 36 33 32 29 26 18 15 19 20 30 39 36 34 36 38 35 29 25 24 22 19 18 17 17 19 19 20 20 21 20 20 19 18 18 17 16 16 15 14 12 11 9 8 7 6 5 5 5 5 5 5 5 5 5 5 4 4 4 4 4 4 4 4 4 4 4 4 4 4 3 3 3 3
10 13 23 41 46 48 54 51 59 65 59 57 49 43 45 44 45 43 41 42 42 41 39 35 34 33 34 31 23 13 9 13 13 16 24 26 27 29 31 29 25 24 23 22 20 20 20 20 21 21 21 21 21 21 20 19 18 18 17 16 15 14 13 12 10 9 7 6 6 5 5 5 5 5 5 5 5 5 5 5 4 4 4 4 4 4 4 4 4 4 4 4 4 4 4 4 4
4 6 21 38 39 42 61 62 55 60 56 50 44 41 42 44 45 44 40 40 39 38 34 32 33 33 33 28 18 10 9 13 12 12 15 18 22 25 25 24 23 23 24 22 21 23 23 22 23 22 22 22 21 20 20 19 18 18 17 16 15 14 12 11 10 8 7 6 6 5 5 5 5 5 5 5 5 5 5 5 5 4 5 4 4 5 4 5 5 5 4 5 4 4 4 4 4
6 8 18 36 44 39 56 67 51 49 50 41 40 43 42 44 44 40 37 33 31 30 29 31 33 30 26 20 12 9 10 11 12 14 16 18 22 24 23 23 24 24 24 23 22 23 24 23 23 23 23 22 21 20 20 19 18 18 17 16 15 14 12 11 9 8 7 6 6 6 5 5 5 5 5 6 5 5 5 5 5 5 5 5 5 5 5 5 5 5 5 5 5 4 5 4 4
8 14 16 31 58 57 56 66 58 51 49 41 41 43 41 41 39 37 33 25 22 26 30 34 33 26 19 13 10 9 9 11 16 18 19 21 23 23 22 23 24 24 24 24 23 24 25 24 24 24 23 22 22 21 20 20 19 18 18 17 15 14 13 11 9 8 7 6 6 5 5 5 5 6 5 6 5 6 5 5 5 5 5 5 5 5 5 5 5 6 5 5 5 5 5 5 5
10 20 22 28 52 63 59 59 58 54 47 42 41 40 39 36 33 33 28 20 22 29 34 34 28 21 14 9 8 10 12 15 20 21 21 23 23 22 23 24 23 23 24 26 27 27 26 25 25 25 24 23 23 22 21 21 20 20 19 18 16 15 13 11 9 8 7 6 6 5 5 5 5 6 6 6 6 6 6 6 5 5 6 5 5 6 6 6 6 6 6 6 6 6 6 6 6
6 22 33 27 34 45 55 58 50 44 40 38 36 35 34 29 26 23 19 19 26 29 29 26 19 15 9 8 11 14 17 20 21 23 23 22 22 21 23 24 24 25 26 28 29 28 27 26 27 26 26 25 24 23 22 22 21 21 19 18 16 14 13 10 9 7 7 6 6 5 5 5 6 6 6 6 6 6 6 6 6 6 6 6 6 6 6 6 6 6 6 7 7 7 7 7 6
13 42 54 35 39 42 42 48 42 38 38 39 38 36 31 22 19 18 18 21 24 25 22 16 11 10 8 10 16 18 21 22 21 23 22 21 20 20 22 24 26 28 30 30 30 30 29 28 28 28 27 26 25 25 24 23 22 21 20 19 16 14 12 10 8 7 7 6 6 5 5 6 6 6 6 6 6 6 6 6 6 6 6 6 6 6 7 7 7 7 7 7 7 7 7 7 7
33 52 53 37 47 49 38 35 32 36 37 37 36 33 26 17 17 17 19 19 18 19 15 10 8 8 10 15 20 20 22 22 20 22 20 20 20 21 24 27 29 30 31 31 29 30 30 29 29 29 28 28 27 27 26 25 24 23 21 19 17 15 12 10 8 8 7 6 6 6 6 6 6 6 6 7 7 6 6 6 6 6 6 6 6 7 7 7 8 7 8 8 8 8 8 7 6
46 44 41 36 44 47 41 35 29 34 34 28 21 17 15 13 14 12 14 15 13 13 9 7 7 9 13 18 22 20 21 21 19 20 19 20 21 24 27 29 30 30 30 29 27 29 30 30 30 30 30 30 29 28 27 26 26 24 22 21 18 15 13 11 9 8 7 7 7 6 7 6 6 7 7 7 7 7 6 6 6 6 6 6 6 7 7 7 8 8 8 8 8 8 7 7 6
49 44 39 37 43 43 36 33 32 34 34 26 14 7 8 8 9 8 9 11 8 7 6 7 9 14 18 21 22 18 19 20 19 19 19 21 23 27 29 30 30 30 28 26 27 28 29 31 31 31 31 30 30 29 28 28 27 26 24 22 20 17 14 12 10 9 8 8 7 7 7 7 7 7 7 7 6 6 6 6 6 6 6 6 7 7 7 8 8 8 8 8 7 7 7 6 6
44 43 36 32 37 37 31 31 31 32 31 23 11 4 5 6 7 7 7 7 6 5 7 10 14 19 21 22 22 17 17 19 19 19 20 22 25 27 27 29 30 29 26 24 26 28 28 29 30 31 31 31 31 31 30 29 29 28 26 24 21 18 15 13 11 10 9 9 8 8 8 7 8 7 7 6 6 5 5 6 5 6 6 6 7 7 7 7 7 7 7 7 7 7 7 6 5
33 37 35 32 28 27 29 28 25 25 20 12 7 5 5 5 5 6 6 5 6 7 11 15 18 21 22 23 22 17 18 20 19 20 21 23 25 26 26 26 28 27 25 23 24 26 26 26 27 28 30 31 32 32 32 31 31 30 28 26 23 20 17 15 12 11 10 10 9 8 8 8 8 7 7 6 5 5 5 5 5 5 6 6 6 6 7 7 7 7 6 7 7 6 6 6 6
20 26 26 26 25 26 26 24 22 21 16 9 7 8 5 5 5 5 6 6 8 12 16 18 21 22 21 23 23 19 17 19 20 20 22 23 24 25 26 25 26 25 23 22 22 24 24 25 25 26 27 28 30 31 33 33 32 32 30 28 25 22 20 17 15 13 12 11 10 9 9 8 7 6 6 5 5 5 4 4 5 5 5 5 6 6 6 6 6 6 6 6 6 6 5 5 5
10 12 12 12 16 22 22 20 21 21 19 11 9 10 7 6 6 6 8 9 13 16 18 20 21 21 20 22 25 21 16 17 20 21 22 23 23 24 24 24 23 22 21 21 21 22 24 24 24 25 26 27 29 30 32 34 34 34 33 31 29 25 22 20 18 15 14 13 11 11 10 8 7 6 5 4 4 3 4 4 4 4 4 5 5 5 5 5 5 5 5 5 5 5 5 5 4
6 6 6 6 10 19 23 21 20 19 16 10 10 12 8 7 8 9 11 13 17 19 20 20 19 18 19 20 20 20 17 17 20 21 22 22 22 23 23 22 20 19 19 19 20 21 23 24 24 26 27 28 30 32 33 35 36 36 35 35 33 30 27 25 22 20 18 16 14 12 11 9 7 6 4 3 3 3 3 3 4 4 4 4 4 4 4 4 4 4 4 4 5 4 4 4 4
6 7 9 12 17 22 25 24 21 17 14 10 11 11 8 10 11 12 15 17 18 19 19 20 18 17 19 18 16 19 20 19 20 21 21 21 22 22 21 20 19 18 18 18 19 20 22 23 24 25 27 28 30 32 32 34 36 37 37 37 36 35 33 31 28 26 24 21 18 16 13 11 8 6 4 3 3 3 3 3 3 3 3 3 3 3 3 4 3 4 4 4 4 4 4 4 4
6 9 17 23 22 20 22 23 18 15 13 11 10 11 11 12 13 15 16 17 19 19 18 18 18 16 18 19 17 18 20 19 20 20 20 21 22 21 19 18 17 17 17 18 19 19 20 20 21 22 24 25 26 29 30 30 32 34 36 37 37 37 37 36 35 33 31 28 24 21 17 14 11 8 5 4 3 3 3 2 2 2 2 2 2 3 2 3 3 4 4 4 4 4 4 3 4
7 9 17 24 21 19 21 19 14 11 11 11 11 13 14 14 14 15 15 17 19 17 16 17 18 17 18 19 17 17 19 19 19 20 21 21 21 19 18 16 16 16 16 17 18 18 18 18 20 20 21 21 22 24 26 26 27 29 31 33 34 35 36 37 38 38 37 35 31 27 22 17 14 10 7 6 4 3 3 2 2 1 2 2 2 2 3 3 3 4 4 4 4 4 4 4 4
8 8 11 18 22 21 18 14 11 11 11 13 14 15 15 16 15 14 14 17 17 14 15 18 18 18 19 19 18 16 17 19 20 20 21 22 20 18 17 17 17 16 16 16 16 17 18 19 19 20 21 20 20 20 21 22 22 24 25 27 28 29 31 33 35 37 39 39 38 34 28 23 17 14 10 8 6 4 3 2 2 1 1 2 2 2 2 3 3 4 4 4 4 4 4 4 4
7 9 10 13 18 17 14 12 12 13 14 15 15 15 16 16 15 14 14 15 14 14 16 17 17 18 18 18 18 16 16 18 20 20 21 21 20 18 18 18 18 19 17 16 17 17 17 19 20 21 23 21 20 20 19 19 19 20 20 21 22 24 25 26 29 31 35 39 41 40 35 29 23 18 14 11 9 6 4 2 1 1 1 1 2 2 2 3 3 4 4 4 5 4 4 4 3
7 9 11 12 12 13 13 14 14 15 15 16 15 15 16 16 14 14 14 13 12 16 17 16 16 18 18 18 17 16 17 18 20 21 20 19 18 17 18 18 20 21 19 17 19 18 17 21 23 23 25 24 22 21 19 18 17 17 18 18 17 18 19 20 23 26 30 35 40 43 41 37 30 23 18 14 11 8 5 3 2 1 1 2 1 2 2 3 3 4 4 4 5 4 4 4 4
10 12 13 13 13 14 15 16 15 15 15 16 15 14 14 14 13 14 14 11 12 17 19 18 17 17 17 18 17 17 18 19 20 21 20 18 17 18 19 20 20 21 20 18 20 21 19 23 26 26 28 28 26 23 20 18 16 16 16 16 15 15 16 17 19 22 27 32 38 43 44 42 35 27 22 17 14 11 8 5 4 2 1 2 2 2 2 3 3 4 4 4 5 5 4 4 4
12 14 14 14 15 16 16 16 15 14 14 14 14 13 14 14 14 14 12 10 13 16 19 20 17 16 17 16 17 18 19 20 20 20 19 17 17 19 20 21 21 23 22 19 21 23 22 25 29 31 31 32 32 29 25 20 18 18 17 17 16 16 17 17 18 21 26 31 37 42 45 45 41 33 26 21 18 15 13 9 5 3 2 1 2 2 2 3 4 4 4 5 5 5 4 4 4
15 15 15 15 16 16 16 15 14 12 12 13 13 13 14 15 15 13 10 12 15 15 18 19 18 17 16 16 17 18 20 21 21 19 18 18 19 20 20 21 23 26 26 23 24 24 24 27 30 34 36 37 37 35 30 26 22 21 21 20 18 17 18 18 19 21 25 30 36 42 46 47 44 39 30 24 21 18 15 11 6 3 2 2 2 2 2 3 4 4 4 5 5 5 5 4 4
17 17 16 16 16 16 15 14 13 12 12 13 13 14 14 15 15 10 10 14 16 16 17 17 18 17 15 16 17 19 20 21 22 20 18 19 20 20 22 24 25 27 28 27 27 27 27 28 30 35 39 41 41 38 34 31 28 26 25 25 21 18 18 19 20 23 27 31 36 42 47 48 46 41 34 27 22 19 15 12 7 4 2 2 2 2 3 3 4 4 4 5 5 5 5 4 4
17 18 17 16 15 13 13 13 12 12 13 13 13 14 13 15 16 11 13 17 17 16 16 16 17 16 16 17 18 19 20 20 21 20 19 20 22 23 24 26 27 28 30 30 29 29 29 28 30 34 37 39 40 39 37 34 32 30 29 27 24 20 19 20 23 25 29 33 38 44 48 49 48 43 35 28 22 18 16 13 8 4 2 2 2 2 3 3 4 5 5 5 5 5 5 4 4
17 16 16 14 14 13 13 14 13 14 14 12 14 14 11 14 16 15 17 19 19 17 16 17 17 16 17 18 19 20 19 19 20 19 21 22 23 24 23 24 27 29 30 30 28 26 27 28 30 31 32 34 36 36 36 35 33 32 31 28 24 22 22 24 26 29 32 36 41 45 49 49 48 44 35 28 23 19 17 13 8 4 2 2 2 3 3 4 4 4 5 5 5 5 5 4 4
15 15 14 14 15 14 15 17 15 15 15 13 14 13 8 11 15 18 22 20 17 16 15 16 17 17 17 18 19 19 18 18 18 20 22 22 21 20 19 20 24 27 27 26 23 21 23 27 28 28 28 29 31 31 33 34 33 33 32 30 26 25 26 29 30 32 35 38 44 47 48 48 47 43 35 27 23 20 18 13 8 4 3 2 2 3 3 4 4 4 5 5 5 5 4 4 4
14 13 13 20 23 18 18 21 18 16 14 12 16 14 6 9 15 19 23 21 16 14 15 15 16 17 18 18 18 18 18 17 19 22 22 21 20 19 19 19 22 26 26 23 21 19 20 24 26 26 26 26 27 28 29 30 32 34 35 33 30 28 30 32 34 36 38 41 46 48 48 47 45 41 33 26 23 20 16 11 8 5 3 3 2 3 4 4 5 5 5 5 5 5 4 4 3
20 17 17 26 29 25 24 20 16 17 16 12 16 16 7 7 12 14 16 16 15 14 14 14 14 15 16 17 17 17 17 18 21 22 22 22 22 21 20 21 25 28 28 25 23 21 19 21 23 24 25 24 24 25 27 27 29 32 35 34 31 32 34 36 38 38 40 44 47 49 49 46 43 40 32 25 21 18 14 10 7 5 3 3 3 3 4 4 5 5 5 5 5 5 4 4 3
29 25 22 26 27 26 24 18 15 18 19 15 16 17 9 5 9 11 12 11 11 11 11 13 13 15 15 16 18 17 17 18 21 23 22 22 24 22 19 21 27 30 30 27 26 25 21 21 22 23 24 24 22 23 26 27 27 29 31 33 32 34 38 40 41 41 42 46 49 50 49 45 42 38 31 23 19 16 13 10 7 5 4 3 3 4 4 4 5 5 5 5 5 5 4 4 3
34 34 29 27 24 23 22 17 15 18 20 17 16 15 9 5 6 8 9 8 8 8 8 10 10 12 14 15 18 18 18 18 20 23 23 22 24 20 15 19 26 30 31 27 26 27 23 21 20 21 23 23 22 22 25 26 28 31 31 34 36 39 42 43 43 44 45 47 49 50 48 44 41 36 28 22 18 15 13 10 7 5 4 3 3 4 4 5 5 6 6 6 5 5 4 4 3
25 26 21 16 15 17 18 14 15 20 22 18 15 14 8 5 5 5 6 6 8 8 6 8 10 12 12 13 16 17 18 19 20 24 24 24 27 22 17 19 23 28 30 27 25 26 25 21 19 20 21 22 22 22 24 26 29 33 34 36 39 43 46 46 46 45 46 48 48 49 48 44 40 34 26 21 18 15 13 10 8 6 4 3 4 4 5 5 6 6 6 6 5 4 4 4 4
11 12 10 9 10 12 12 13 19 24 25 19 14 13 9 5 4 4 4 6 10 10 8 9 13 15 12 12 15 17 18 19 20 24 25 28 30 25 19 18 20 25 29 28 27 27 27 23 18 19 20 21 22 21 23 26 30 35 37 39 41 44 47 48 49 47 46 48 48 48 49 45 39 32 25 20 18 15 13 11 8 6 4 4 4 5 5 5 6 6 6 6 5 4 4 4 4
10 10 10 12 11 11 16 22 27 28 28 22 13 12 10 6 4 4 4 6 10 10 8 9 11 13 12 12 15 16 19 19 20 25 29 31 28 21 19 18 18 21 25 28 29 29 29 24 18 17 20 20 20 21 22 26 30 35 39 42 44 46 46 47 49 49 47 46 47 49 50 46 39 32 25 20 18 16 13 11 9 7 5 4 5 5 5 6 6 6 6 5 5 4 4 4 4
11 11 12 13 14 22 30 32 30 27 27 19 11 10 8 6 4 4 6 7 8 8 8 7 8 11 12 13 14 15 18 20 22 29 33 32 29 27 28 27 23 19 19 24 29 30 29 23 18 17 19 19 20 21 23 25 29 33 38 43 47 48 46 47 48 48 49 49 50 52 52 48 41 32 24 19 17 16 14 11 9 7 5 5 5 5 5 6 6 6 6 5 5 4 4 4 4
12 15 18 18 21 31 32 27 22 21 21 14 7 7 6 6 7 6 8 10 10 11 10 9 9 11 12 11 13 16 20 23 27 33 34 32 32 33 34 35 30 19 15 19 24 28 26 22 19 18 19 19 20 22 23 25 29 32 37 41 48 51 48 47 47 44 43 48 53 56 55 50 43 34 25 20 17 16 14 12 10 8 5 5 5 5 6 6 7 6 6 5 5 4 4 4 4
13 21 29 28 26 26 20 13 12 13 15 10 7 12 8 5 10 11 11 12 16 19 16 12 11 11 12 12 15 21 26 29 32 32 31 31 31 31 34 37 28 19 16 17 21 24 23 22 21 20 20 20 22 23 25 26 29 32 37 41 46 52 52 50 50 45 40 43 50 55 56 52 45 37 27 20 18 16 15 13 11 8 6 5 5 5 6 7 7 6 6 5 5 5 4 4 4
12 20 31 35 27 19 14 10 10 12 13 9 15 21 9 5 14 14 12 15 17 19 18 13 11 10 11 12 18 27 31 32 31 29 29 30 29 27 29 31 23 17 18 18 19 20 20 21 22 22 23 23 24 27 28 29 31 35 41 45 45 51 58 57 58 56 48 46 49 53 57 56 49 40 30 22 18 16 15 14 12 8 6 5 6 6 6 7 7 6 6 5 5 5 4 4 4
11 15 27 35 26 17 15 11 11 10 9 14 26 27 10 5 14 12 13 18 15 15 18 17 15 12 13 14 18 27 30 29 30 31 32 32 32 29 24 21 19 19 20 20 21 21 22 22 22 24 25 25 27 29 32 33 33 36 45 51 48 53 63 65 67 66 59 55 56 57 60 59 52 43 33 24 18 17 16 15 13 8 6 6 6 6 7 7 7 6 6 5 5 4 4 4 4
11 13 23 27 20 15 13 12 16 15 14 21 31 36 21 6 9 15 16 16 15 17 20 22 23 22 24 23 23 28 30 30 31 32 32 33 35 32 25 21 21 22 24 24 24 24 25 27 27 27 27 27 28 29 33 36 35 36 44 51 52 55 63 70 74 73 67 63 63 64 65 63 57 45 34 25 19 17 17 16 14 9 6 6 6 7 7 7 7 7 6 5 5 5 4 5 5
13 14 18 17 14 13 11 14 24 25 22 21 27 43 38 16 13 18 14 12 17 20 20 23 26 27 29 30 29 30 30 31 31 30 32 34 31 27 25 26 27 27 27 26 27 28 29 32 33 33 30 29 28 30 33 36 37 37 41 48 53 55 61 72 78 80 78 72 69 69 69 68 62 49 36 26 19 17 17 17 14 9 6 6 7 7 8 8 7 7 6 5 5 5 5 5 5
14 14 15 15 12 12 14 22 32 35 31 22 20 38 47 34 24 16 9 13 19 18 17 20 22 25 27 29 29 30 31 32 34 36 37 34 26 21 22 26 27 27 26 26 27 30 31 33 37 40 38 33 30 31 33 36 38 39 40 46 53 57 61 70 77 82 86 81 74 72 73 74 67 53 39 27 20 18 17 18 15 9 7 7 7 8 8 8 7 7 6 6 5 5 5 5 5
16 16 16 15 13 14 21 30 37 39 43 35 25 36 50 44 27 13 10 16 20 21 21 19 19 22 26 27 28 29 33 36 38 39 35 27 23 22 23 25 28 28 30 33 34 38 41 41 43 47 48 43 35 32 34 37 39 41 42 44 53 61 65 70 75 82 91 88 80 78 79 79 72 57 41 29 22 19 18 19 15 9 7 7 7 8 8 8 7 7 6 6 5 5 5 5 5
22 21 17 13 15 18 23 35 39 39 49 48 37 39 47 40 23 13 15 18 22 25 23 19 18 22 27 29 28 29 32 35 36 33 28 24 24 25 26 28 30 31 33 38 39 44 51 53 52 53 53 51 44 35 33 37 39 41 43 44 53 65 71 74 77 86 97 95 86 83 82 82 76 61 44 30 23 20 19 19 17 10 7 8 8 8 8 8 8 7 6 6 6 5 5 5 6
25 21 16 13 17 21 24 34 39 42 49 44 35 33 36 35 22 12 18 21 23 25 22 19 18 21 26 25 26 29 31 32 31 28 26 25 24 24 25 26 29 29 32 38 39 41 48 54 56 55 53 52 47 40 35 35 38 40 43 46 51 64 75 79 82 91 100 99 92 87 84 83 77 64 48 33 24 20 19 20 18 11 8 8 8 9 9 8 8 7 7 6 5 6 6 6 6
22 19 20 21 23 24 24 31 37 46 49 35 26 24 25 30 22 15 21 23 23 25 22 19 18 20 22 21 22 25 26 27 28 29 29 27 26 25 23 24 27 28 32 40 43 43 47 50 52 53 52 49 45 42 38 36 37 39 44 48 51 61 75 82 87 94 100 101 96 90 86 84 77 65 52 36 24 20 20 21 19 12 8 9 8 9 9 8 8 7 7 6 6 6 6 6 7
18 19 23 31 37 37 34 35 35 38 36 24 21 24 25 27 22 20 24 23 24 23 20 19 19 20 22 22 22 21 23 28 28 29 30 28 28 26 23 24 26 27 31 39 45 46 47 48 47 47 48 47 44 40 38 37 38 40 44 49 53 61 73 83 91 97 100 100 98 92 86 83 76 64 52 37 24 20 20 21 20 13 8 9 9 9 9 8 8 7 7 6 6 6 6 6 7
20 23 26 38 49 51 47 40 36 34 28 20 23 30 31 27 22 22 22 21 23 21 19 20 19 20 23 23 23 22 24 27 26 26 27 26 24 23 23 22 21 23 29 36 42 45 45 44 42 42 42 42 41 38 36 37 39 42 46 51 55 61 72 86 94 97 99 100 99 92 85 81 74 63 53 38 24 20 21 22 22 15 9 9 9 9 9 8 8 8 7 7 6 7 7 7 7
24 23 30 44 46 48 49 42 40 40 32 27 31 35 32 26 23 21 19 20 22 21 20 20 20 22 24 23 24 25 26 25 22 22 22 22 22 21 21 22 26 31 36 39 42 42 43 40 37 38 38 38 38 37 35 35 38 43 48 53 58 61 72 88 96 98 100 101 98 91 84 79 72 63 54 40 26 22 22 23 24 16 10 10 10 9 10 9 8 8 7 7 7 7 7 8 8
22 20 34 45 34 30 36 35 33 35 41 42 37 30 24 22 22 20 19 21 21 20 20 19 20 22 24 25 25 25 27 27 25 23 22 22 23 25 30 36 41 45 44 44 44 43 42 40 37 37 38 39 37 35 35 35 37 43 49 56 60 63 74 89 97 99 100 101 98 90 83 78 71 64 56 41 28 24 23 24 25 18 11 10 10 10 10 9 8 8 7 7 7 7 7 8 9
18 20 30 31 22 24 37 43 34 33 48 47 30 23 22 23 25 21 20 20 18 17 19 19 20 22 25 28 28 26 28 30 30 28 27 29 33 39 47 50 50 49 48 46 45 44 42 40 39 38 38 41 41 37 35 35 37 44 52 58 61 65 78 92 98 100 100 100 98 90 83 77 70 64 56 42 29 25 24 25 27 20 12 11 11 11 10 10 9 8 8 7 7 7 8 8 9
19 22 24 21 23 30 42 51 43 41 49 40 25 26 29 30 30 24 19 18 17 17 18 18 21 24 25 26 28 29 29 31 32 30 32 39 47 53 54 52 50 49 49 47 45 43 41 39 39 39 39 41 46 45 40 36 40 49 56 59 61 67 81 94 98 99 100 100 99 92 83 76 70 63 56 44 33 27 25 27 28 23 15 12 12 11 10 10 9 8 8 7 7 7 8 9 10
18 21 25 28 35 38 39 44 45 49 54 44 34 31 29 29 27 23 21 18 18 19 19 20 24 25 25 25 27 29 29 31 30 32 40 50 56 56 52 50 51 51 50 50 49 45 42 40 36 37 38 39 45 49 48 47 49 54 60 61 61 67 82 93 97 100 100 100 100 94 84 76 70 64 57 48 39 31 26 28 30 27 19 14 13 12 11 10 9 9 8 7 8 8 8 9 10
17 23 28 31 37 39 38 38 40 50 58 54 48 42 33 26 21 21 23 21 20 22 22 23 24 24 24 25 26 28 30 30 31 37 49 55 56 55 53 52 52 53 53 54 53 49 46 42 35 34 37 41 46 49 51 53 53 55 62 64 61 65 78 90 96 100 100 100 101 95 86 78 71 66 59 52 46 36 29 29 32 31 24 17 15 14 12 11 10 9 8 8 8 8 9 9 10
20 22 24 27 31 31 34 39 37 44 56 56 54 51 34 19 18 22 24 24 22 23 23 23 24 23 24 26 27 29 30 31 35 43 49 53 53 52 54 56 54 54 54 55 56 53 50 47 40 35 36 42 50 53 52 52 52 55 62 63 61 63 74 87 96 100 100 99 101 97 89 80 73 68 62 58 53 43 34 31 33 35 31 22 17 15 13 12 10 9 9 8 8 8 9 9 10
20 20 24 28 32 31 40 49 37 32 44 45 49 56 35 12 17 24 24 25 23 22 25 26 25 25 25 26 27 28 30 33 38 44 48 52 52 51 55 57 56 55 55 56 57 54 51 50 47 41 37 40 49 56 56 53 52 57 62 63 60 62 73 87 96 101 101 99 100 98 91 83 76 72 67 63 60 50 39 35 35 37 37 30 20 16 15 12 11 10 9 8 8 8 9 9 10
Wind_Speed
22 20 18 16 13 10 9 7 5 8 9 13 17 18 21 22 22 24 23 24 25 25 23 20 20 19 17 17 16 15 15 16 15 13 15 17 17 18 18 18 19 21 22 24 25 25 25 25 26 26 26 25 24 22 21 19 18 17 17 17 17 17 17 17 17 17 18 18 18 18 18 18 19 20 20 21 21 22 22 23 24 24 24 24 25 26 26 26 27 28 28 29 29 30 31 31 32
19 18 16 14 11 8 7 6 5 9 12 16 18 19 23 20 19 24 26 27 28 25 22 20 20 19 18 18 17 16 16 17 18 17 19 20 20 20 19 20 20 21 22 24 24 25 25 26 26 26 25 24 22 20 18 17 16 16 16 16 17 17 17 18 18 18 18 18 18 18 19 19 20 21 21 22 22 23 23 24 24 24 24 25 26 26 27 28 28 29 29 30 30 31 32 32 33
15 16 15 11 10 9 6 7 10 11 14 17 15 15 20 19 20 26 27 24 24 23 22 21 19 19 19 19 18 17 17 18 18 18 20 21 20 19 19 19 20 21 22 24 24 25 26 26 25 24 23 22 20 19 17 16 16 16 16 16 17 17 18 18 19 19 19 18 19 19 19 20 21 21 22 22 23 23 24 24 24 24 24 25 25 26 27 28 28 29 30 31 31 32 32 33 34
12 14 14 10 7 8 7 9 13 12 16 18 13 12 15 18 22 23 21 19 20 21 21 20 20 20 19 18 17 16 18 18 18 18 19 19 18 18 18 18 19 21 22 24 25 25 26 25 23 22 21 20 19 17 16 16 16 17 17 17 18 18 19 19 19 19 19 19 19 19 19 20 21 22 22 23 23 23 24 24 25 25 25 25 26 27 27 28 29 29 30 31 32 33 33 34 35
12 11 12 11 9 7 8 10 13 13 18 17 13 15 16 20 22 19 18 20 21 20 20 20 20 19 18 18 17 17 19 18 16 18 17 16 15 16 16 17 19 22 23 24 26 25 24 23 21 20 19 18 18 17 16 17 17 17 18 19 19 19 20 20 20 20 19 19 19 19 20 20 21 22 23 23 23 23 24 24 25 25 26 27 27 28 29 29 30 30 31 32 32 33 34 35 36
14 12 10 12 11 11 11 11 13 15 19 19 19 21 23 27 26 22 22 23 22 21 21 21 20 18 18 17 17 18 18 17 16 17 16 14 14 15 16 18 20 22 24 24 24 23 22 21 20 19 19 18 18 18 17 17 18 18 19 19 20 20 20 20 20 20 20 19 19 20 20 21 21 22 23 23 23 23 24 24 25 26 27 28 28 29 30 30 31 31 32 32 33 34 34 35 36
12 11 7 10 9 10 12 14 15 15 19 21 23 26 29 32 30 27 26 25 23 22 20 19 18 17 18 16 16 18 17 18 17 15 15 14 14 15 17 19 21 23 24 23 22 21 21 20 19 19 19 19 19 19 19 19 19 19 20 20 20 20 20 20 20 20 20 20 20 20 21 21 22 22 23 23 24 24 24 25 26 27 27 28 29 29 30 31 31 32 33 34 34 35 35 36 37
9 8 4 7 7 9 12 15 16 17 20 20 21 25 29 29 28 27 26 24 23 21 19 18 17 16 18 16 17 17 15 19 16 14 15 14 15 17 18 20 21 22 22 21 19 19 20 19 18 19 19 19 19 19 20 20 20 20 20 21 21 21 20 20 20 20 20 20 21 21 22 22 22 23 23 24 24 24 25 25 26 27 27 28 29 29 30 31 31 32 34 34 35 36 37 37 38
9 6 4 8 7 11 14 14 17 20 23 24 24 26 28 27 25 25 24 24 22 20 18 17 17 17 18 16 18 18 14 17 16 15 16 15 16 17 19 20 21 21 20 19 18 17 17 18 18 19 20 20 20 21 20 20 20 20 21 21 21 21 20 20 20 21 21 21 22 22 23 23 23 23 24 24 25 25 25 26 26 27 27 28 28 29 30 31 32 33 34 35 36 36 37 38 38
5 1 3 8 8 11 15 15 17 22 26 24 23 24 26 24 23 23 21 22 20 18 18 16 16 17 17 16 19 19 14 16 16 16 17 16 17 17 19 20 21 22 20 19 19 17 15 16 19 19 21 21 22 22 21 21 20 20 20 21 20 20 20 20 21 21 22 22 23 23 23 23 24 24 25 25 25 25 25 25 26 27 27 27 28 29 30 31 32 34 35 35 36 37 38 39 39
5 6 5 10 10 12 14 14 15 20 25 23 21 22 21 21 21 21 19 19 18 17 18 17 16 15 16 16 19 19 15 16 17 17 17 17 18 18 19 20 21 22 19 18 19 18 16 15 18 19 20 21 22 22 22 21 20 20 20 20 20 20 20 20 21 22 22 23 23 24 24 24 25 25 25 25 25 25 25 25 26 26 27 27 28 29 30 32 33 34 35 35 36 37 38 39 39
8 6 8 11 11 13 14 13 13 19 24 24 23 21 19 19 19 19 17 17 18 17 17 16 15 14 15 15 18 19 15 16 17 17 17 17 18 19 20 20 21 21 18 18 18 18 18 16 16 17 18 19 19 20 22 21 20 19 19 20 20 20 20 20 21 22 23 23 24 24 24 25 25 26 25 25 25 25 26 26 26 26 27 28 29 30 31 32 33 34 35 36 37 37 38 39 40
7 7 9 14 14 14 16 15 17 22 26 24 22 19 17 17 16 17 16 17 18 17 16 15 15 15 15 15 19 19 15 16 17 17 18 18 19 20 22 22 22 20 18 18 18 18 19 18 18 18 18 19 18 18 19 21 20 19 19 19 20 20 20 21 22 23 23 24 24 24 25 25 26 26 26 25 25 26 26 26 27 27 28 29 30 31 32 33 34 35 36 36 37 38 39 40 40
5 8 11 14 14 15 18 18 18 21 23 23 21 17 16 16 15 16 16 16 17 16 16 15 15 16 15 14 18 20 17 15 16 17 19 19 21 22 23 24 22 20 18 18 19 19 19 19 19 20 20 21 21 20 19 20 20 19 19 19 20 21 21 22 22 23 24 24 24 25 25 25 26 26 26 26 26 26 27 27 28 28 29 30 31 32 33 34 35 35 36 37 38 38 39 40 41
5 8 11 14 15 14 17 17 17 17 19 22 20 16 16 16 16 16 16 16 16 17 17 15 14 15 14 14 16 21 20 15 15 18 19 20 22 23 23 23 22 20 19 19 19 20 20 20 20 20 21 21 22 22 21 20 19 19 18 18 19 21 22 22 22 23 24 24 25 25 25 25 25 26 26 26 27 27 27 28 29 29 30 31 32 32 33 34 35 35 36 37 38 39 39 40 41
7 9 11 14 13 12 15 15 16 17 19 21 18 16 17 17 16 16 16 16 17 18 17 16 16 14 14 16 17 19 22 19 18 20 20 22 23 23 23 22 21 20 20 20 20 20 21 21 22 21 22 21 21 22 22 21 20 19 18 19 19 21 22 23 23 24 24 25 26 26 26 26 26 26 26 27 27 28 28 29 29 30 31 32 32 32 33 34 34 35 36 37 38 39 40 40 41
8 8 8 11 10 10 13 12 15 17 19 20 17 16 17 17 16 15 16 16 17 18 17 17 17 15 15 19 18 17 20 20 20 21 22 23 23 23 22 21 21 20 20 20 20 21 22 23 23 24 24 24 23 23 23 23 22 20 19 19 20 21 22 24 24 25 26 26 27 28 28 27 27 27 27 27 28 28 29 30 30 31 31 32 32 33 33 34 34 35 36 37 38 39 40 40 41
7 7 6 9 11 12 13 13 16 19 20 20 18 17 17 18 17 15 16 16 17 18 18 18 18 16 14 18 19 16 19 21 21 22 23 24 23 22 21 21 20 20 20 20 22 23 23 24 25 26 26 26 25 25 25 25 24 22 21 21 21 21 23 25 26 27 27 28 28 29 29 29 28 28 28 28 29 29 30 30 30 31 31 32 32 32 33 34 35 35 36 37 38 39 40 41 42
8 7 7 11 15 16 17 20 21 19 21 21 18 17 17 19 18 16 17 17 18 19 18 18 19 17 14 18 21 19 19 22 23 23 24 24 22 22 21 21 20 19 19 18 20 23 24 24 26 27 28 28 27 27 26 26 26 25 23 23 23 23 23 25 26 28 29 29 30 30 30 30 29 29 29 29 30 30 31 31 31 31 32 32 33 33 33 34 35 36 37 38 38 39 40 41 42
9 9 9 13 16 18 20 21 20 17 19 20 18 17 17 18 20 19 17 17 20 20 18 19 19 18 17 18 21 22 20 21 24 24 23 23 22 22 22 22 22 21 20 18 19 23 24 25 26 27 28 29 29 28 28 28 28 27 26 25 25 25 25 26 27 28 29 30 31 31 31 30 30 30 30 31 31 31 32 32 32 32 32 33 33 34 34 35 35 36 37 38 39 40 41 42 43
10 11 12 15 16 18 18 16 16 15 17 19 18 17 16 18 21 20 19 19 20 21 19 19 19 19 20 21 21 24 23 22 23 24 22 21 21 22 22 23 25 25 24 22 22 24 26 27 28 29 30 30 30 30 29 29 29 28 28 27 27 27 28 28 28 29 30 30 31 32 32 31 31 31 31 32 32 32 33 33 33 33 33 34 34 35 35 35 36 37 38 39 40 41 42 44 45
12 13 14 15 15 17 16 14 14 15 16 17 18 17 16 19 21 20 22 22 18 19 22 21 20 21 22 23 23 24 26 24 23 24 22 20 21 22 23 24 26 28 28 27 26 27 28 30 31 31 32 32 32 31 30 30 30 29 28 28 29 29 30 30 30 30 31 31 32 32 33 32 32 32 32 33 33 33 33 34 34 34 34 34 35 36 36 36 37 38 39 40 41 42 44 45 46
13 14 14 13 14 16 15 14 14 15 15 16 18 18 17 21 22 21 23 22 16 17 22 23 23 23 23 24 24 24 27 27 24 23 23 21 21 22 24 25 26 28 29 28 28 29 30 32 33 33 33 33 33 33 32 31 31 30 29 29 29 30 31 31 31 32 32 33 33 33 34 34 33 33 33 34 34 34 35 35 35 35 35 35 36 36 36 37 38 39 40 41 42 44 45 46 47
14 15 13 12 13 14 14 15 15 15 15 16 18 18 19 22 23 24 23 21 18 17 20 24 26 25 24 24 23 24 26 28 27 24 23 22 22 23 24 26 27 29 31 29 29 31 31 33 34 34 34 34 34 34 33 32 31 30 29 29 29 30 31 32 33 33 33 34 34 34 35 35 35 34 35 35 35 36 36 36 36 35 35 35 36 36 37 37 38 39 40 42 43 45 46 47 48
13 14 13 13 14 14 15 15 16 16 16 17 19 20 21 22 25 25 20 19 19 18 19 23 27 27 26 24 23 24 26 28 29 26 24 23 24 24 24 25 26 30 33 32 31 32 32 33 34 34 35 35 35 34 34 33 32 30 30 30 30 31 32 32 33 34 34 34 35 35 36 36 36 35 35 36 36 36 37 36 36 35 35 35 36 36 37 38 39 40 41 43 44 46 47 49 50
12 13 14 14 15 15 15 16 17 18 18 19 20 22 22 23 27 22 15 15 17 18 21 22 25 27 26 25 24 26 27 28 28 27 25 24 25 25 24 25 27 29 33 34 34 33 33 33 33 34 35 34 35 35 34 33 32 31 31 32 32 33 33 33 34 34 34 35 35 36 36 36 36 36 36 36 36 36 37 36 36 35 34 35 36 36 37 38 39 41 42 43 45 47 49 50 51
12 13 14 15 15 15 15 16 18 18 20 21 22 24 23 24 28 20 13 15 18 20 23 23 24 25 25 25 25 25 27 27 27 27 25 25 25 26 25 27 29 30 32 34 34 34 33 33 32 33 34 34 35 35 34 33 32 32 32 32 33 34 34 35 35 35 34 35 36 36 37 37 37 36 36 36 36 36 37 36 35 35 34 35 36 36 37 39 40 41 42 44 46 48 49 51 53
12 14 14 14 15 16 15 16 18 19 21 22 23 26 24 22 24 20 17 20 22 23 24 25 27 25 24 26 26 26 27 26 26 26 24 23 24 25 26 27 29 30 31 33 33 33 33 32 31 31 32 33 33 34 33 33 32 32 33 33 34 35 35 35 35 35 35 35 35 36 36 37 37 37 36 36 36 36 37 36 35 35 34 35 36 36 38 39 40 42 43 45 47 49 50 52 53
13 14 15 16 16 16 15 16 18 21 23 24 25 28 24 18 21 20 19 22 23 24 24 25 27 27 26 27 28 28 26 25 25 24 22 21 22 24 26 26 28 29 30 32 33 33 32 31 31 31 31 31 32 33 32 31 31 32 33 34 34 35 35 35 35 35 35 35 36 36 36 36 37 37 36 36 36 36 36 36 36 35 35 35 36 37 38 39 41 42 44 46 47 49 50 52 55
13 14 15 16 18 17 16 18 23 25 26 24 25 28 24 19 20 19 19 24 26 26 26 25 26 28 28 27 27 27 26 25 24 22 20 21 21 23 25 25 26 29 31 32 33 33 32 31 31 31 31 31 31 31 31 31 31 32 32 33 34 34 35 35 36 36 36 36 36 36 35 36 37 37 36 36 36 36 36 36 35 35 35 36 36 37 38 39 41 42 44 46 47 49 51 53 55
13 14 14 15 17 18 20 22 24 25 26 25 24 29 29 22 20 22 24 28 29 30 29 28 27 28 29 29 28 26 25 25 24 22 20 21 22 24 26 25 26 29 32 35 34 34 34 32 32 32 31 31 31 30 31 31 31 31 32 32 33 34 34 35 36 36 36 36 36 36 36 36 37 37 36 36 35 36 36 36 35 35 36 36 36 37 38 40 41 43 44 46 48 50 52 53 55
15 13 13 14 15 18 23 25 23 24 27 28 24 28 32 27 23 25 28 30 30 31 31 30 30 30 30 31 31 30 26 24 24 22 21 22 23 25 27 26 27 29 33 36 35 35 35 33 32 32 32 31 31 30 30 31 31 32 32 32 33 33 34 35 36 36 36 37 36 36 36 36 37 36 36 35 35 35 35 35 35 35 36 36 36 37 38 40 41 43 44 46 49 51 52 53 55
12 10 13 15 15 19 23 23 23 23 26 29 27 29 35 31 25 24 28 30 31 31 32 30 29 29 30 31 31 32 30 27 25 21 21 23 24 27 28 27 29 30 33 36 36 36 36 35 33 32 32 32 31 30 30 30 31 31 32 32 33 33 34 35 36 36 36 37 36 36 36 36 37 36 36 35 35 35 35 35 35 35 36 35 36 37 38 40 41 43 45 46 48 50 51 53 55
9 11 16 17 17 19 21 23 24 23 25 29 30 33 36 35 31 28 28 31 31 31 31 31 31 31 30 29 30 30 30 30 26 21 20 23 25 28 30 29 29 31 33 36 36 36 36 35 33 32 31 31 31 30 29 30 30 31 31 32 33 33 34 35 35 36 36 37 37 36 36 36 37 36 35 35 35 35 35 35 35 35 35 35 36 37 38 40 41 43 45 46 48 49 51 53 55
12 14 18 19 18 18 20 21 21 23 27 29 30 34 37 38 36 33 32 32 31 30 29 29 31 32 31 29 30 30 29 30 27 22 20 23 25 28 30 30 30 31 33 35 36 36 36 35 33 31 31 31 30 30 29 30 30 31 31 32 33 33 34 34 35 36 37 37 37 36 36 36 36 36 35 35 35 35 35 35 35 35 35 35 36 37 38 40 41 43 45 46 48 49 51 53 55
13 14 17 20 21 22 19 17 20 24 29 31 33 37 41 40 38 36 35 31 27 25 24 23 24 28 29 28 29 29 28 28 26 21 20 23 26 27 28 30 30 31 32 34 35 35 35 34 32 31 30 30 30 30 30 30 31 32 32 33 33 33 34 35 35 36 37 37 36 36 36 36 36 36 35 35 35 35 35 35 35 35 35 35 35 36 38 40 41 43 44 46 48 49 50 52 55
14 15 17 19 22 22 17 18 23 25 30 35 36 39 42 40 38 35 30 22 17 18 20 23 23 23 24 24 24 23 23 24 22 19 21 24 27 29 29 30 31 31 32 32 33 33 33 33 31 30 30 30 30 30 30 31 32 32 33 33 34 34 35 35 35 36 36 36 36 35 35 35 36 36 35 35 35 34 35 35 35 34 34 34 35 36 38 40 41 43 44 46 48 49 50 52 54
16 17 17 19 20 19 19 22 25 26 31 38 37 39 42 39 35 29 21 15 15 19 24 26 26 22 21 20 17 16 16 16 15 16 20 23 27 29 29 31 31 31 30 29 30 31 31 31 31 31 31 31 31 31 31 32 33 33 34 34 34 35 35 35 35 36 36 36 35 35 35 35 35 36 35 34 34 34 35 35 35 34 34 34 35 36 38 39 41 43 44 46 47 49 50 52 54
17 16 18 19 19 21 26 27 28 30 34 40 38 36 41 39 28 19 19 21 20 23 27 26 22 21 19 16 13 13 12 9 11 14 17 20 23 26 27 28 29 28 28 27 27 27 28 29 30 31 32 32 32 32 32 32 34 35 35 35 35 35 35 35 36 36 37 36 35 35 34 35 35 35 35 34 34 34 34 35 35 34 34 34 35 36 37 39 41 42 44 46 47 49 50 52 53
19 18 19 20 21 26 31 33 34 34 35 39 33 31 41 35 17 15 21 23 23 26 29 24 19 17 16 14 11 9 9 10 14 15 16 18 20 22 25 27 26 26 27 27 27 28 30 31 32 33 33 34 34 33 33 33 34 36 36 36 36 36 36 36 36 36 36 36 36 35 34 34 35 35 35 35 34 34 34 34 35 34 34 34 34 35 37 39 40 42 44 46 47 49 50 51 52
22 20 17 18 24 29 33 37 39 38 36 29 21 27 39 28 15 19 19 17 23 27 26 22 19 17 15 14 9 7 9 11 12 12 14 16 17 20 26 29 29 28 27 28 29 31 33 34 35 36 36 36 36 35 34 34 35 36 37 37 37 37 36 36 36 35 35 34 34 34 33 33 34 35 35 34 34 33 34 34 35 34 34 34 34 35 37 38 40 42 43 45 47 48 49 50 51
24 21 18 20 28 33 35 37 37 37 31 20 15 17 25 28 23 19 17 23 26 20 19 21 20 18 16 12 4 2 6 9 10 11 14 16 18 23 29 31 32 31 30 30 33 35 36 37 37 38 38 38 38 37 36 35 35 36 37 38 38 38 37 36 36 36 34 33 33 33 32 32 32 33 34 34 33 33 34 34 34 34 34 33 34 35 36 38 39 41 43 45 46 48 49 49 50
25 23 23 25 31 34 36 35 30 28 25 24 24 13 17 30 24 18 27 33 19 10 14 18 18 17 13 8 3 5 9 12 15 18 20 23 27 30 28 27 30 33 34 36 37 38 38 39 39 38 39 40 40 39 38 37 36 36 37 39 39 38 38 37 37 36 34 33 33 32 31 31 31 32 33 33 32 32 33 34 34 34 33 33 33 34 36 37 39 40 42 44 45 47 48 48 48
25 26 28 30 32 32 32 30 27 27 27 31 27 12 17 21 15 22 36 28 14 14 16 15 14 13 10 7 7 10 12 15 19 21 25 31 33 32 28 26 29 32 36 40 41 41 41 41 41 40 39 39 41 41 40 39 37 37 37 39 39 39 39 38 38 37 35 34 33 32 31 31 31 32 33 32 32 31 32 33 34 33 33 33 33 34 35 37 38 40 41 43 44 45 46 47 47
25 28 31 31 30 28 27 26 27 25 21 27 24 6 9 13 16 30 32 22 21 23 22 21 15 10 10 10 9 10 11 13 18 23 31 35 33 30 29 29 31 33 36 39 42 42 42 42 42 41 40 39 40 41 41 40 39 38 38 39 39 39 40 40 39 38 37 36 34 33 31 31 31 32 32 32 31 31 32 33 34 33 32 32 33 34 35 36 38 39 40 42 43 44 45 46 45
25 28 31 30 26 24 24 22 24 19 10 16 16 5 3 11 24 35 28 23 25 22 26 29 18 11 12 13 13 16 17 18 22 30 34 33 30 28 28 29 31 34 37 39 41 42 43 43 43 42 40 39 39 40 40 40 39 39 39 40 39 40 40 40 40 39 37 37 35 33 31 30 30 31 31 31 30 30 31 32 33 33 32 32 32 33 34 36 37 38 39 41 42 43 44 44 44
24 28 29 30 25 20 19 16 15 10 4 6 10 11 12 11 25 35 26 21 21 20 25 24 17 14 14 17 20 23 25 27 32 36 34 29 28 28 28 30 32 35 37 39 42 43 43 44 44 44 42 39 38 38 39 38 38 39 39 40 40 40 41 41 40 39 38 38 36 33 31 29 30 31 31 30 29 29 30 32 33 32 31 31 32 33 34 35 36 37 39 40 41 42 43 43 42
23 26 26 27 23 17 14 12 8 2 2 8 16 28 24 12 22 28 20 18 20 20 20 20 24 24 21 23 25 27 31 33 35 35 32 29 28 30 31 33 36 38 39 41 43 44 44 44 45 46 45 42 40 38 38 38 37 37 39 40 40 40 42 41 40 39 38 38 37 33 30 29 29 30 31 30 29 28 29 31 33 32 31 31 31 32 33 35 36 37 38 40 40 41 41 42 41
23 24 24 19 13 11 9 6 5 4 8 17 26 33 24 18 22 17 16 25 22 17 23 26 31 32 29 30 31 32 31 29 30 30 30 30 31 34 37 38 41 44 45 45 45 45 45 45 45 46 46 45 43 40 38 38 37 36 38 40 40 40 41 41 39 39 38 38 37 33 30 29 29 30 30 29 28 27 28 31 32 32 31 31 31 32 33 35 36 37 38 39 39 40 41 41 39
20 20 22 13 5 5 6 4 4 5 15 29 32 26 19 20 21 16 24 29 15 15 26 26 28 29 30 32 31 30 28 27 30 32 32 35 38 42 44 45 48 51 52 49 46 45 45 46 46 47 47 46 46 43 40 39 38 37 37 38 39 39 40 40 39 39 38 37 37 33 29 28 29 29 29 28 27 26 28 30 32 32 31 31 31 32 33 34 35 36 37 38 38 39 39 40 38
16 17 15 7 4 4 3 4 4 6 18 31 29 19 15 19 23 23 27 23 11 14 24 24 24 26 29 31 29 27 29 31 33 34 37 40 43 45 46 49 52 53 53 49 45 45 45 45 47 47 47 46 46 45 42 40 40 38 37 37 37 38 38 38 38 38 36 36 36 32 29 28 28 29 29 27 26 26 28 30 32 31 31 31 31 32 33 34 35 36 37 37 38 38 38 38 37
15 17 9 5 11 11 9 11 14 15 17 19 17 19 25 29 30 24 18 18 18 20 27 29 27 26 28 30 28 29 32 33 33 37 41 42 42 44 47 48 48 47 47 45 44 44 45 46 47 47 47 46 47 46 44 42 40 38 36 34 35 36 36 36 37 36 35 35 34 31 28 27 27 28 28 27 26 26 28 30 31 31 30 31 31 32 32 33 35 36 36 37 37 37 37 37 36
18 16 10 13 19 16 12 13 18 16 10 9 14 25 33 30 26 21 18 24 28 26 30 33 30 29 30 29 27 30 33 33 35 40 41 41 42 45 46 44 41 40 41 42 43 43 44 46 46 47 47 46 47 47 44 41 39 36 34 33 33 34 34 34 35 35 34 34 33 30 27 26 26 27 28 26 25 26 28 29 31 31 30 30 31 31 32 33 34 35 36 36 36 37 37 36 36
19 14 14 19 17 14 11 8 9 8 5 9 17 27 33 23 17 22 25 27 29 29 31 31 30 30 31 30 27 29 33 34 38 42 41 41 43 44 43 40 37 38 39 41 42 42 42 43 43 45 45 44 45 46 43 38 35 33 33 33 32 31 31 32 34 34 33 33 32 30 27 26 25 26 27 25 25 26 27 29 30 30 30 30 31 31 32 33 34 35 35 35 36 36 36 35 35
19 14 15 16 11 12 13 8 7 6 3 6 15 25 32 25 18 25 30 29 29 32 34 32 31 31 31 30 29 31 35 37 41 43 41 41 45 44 40 36 36 37 38 40 42 42 41 41 42 43 43 41 41 41 39 34 32 31 32 33 32 30 29 31 33 33 33 33 32 29 27 25 25 26 26 25 25 26 27 28 29 29 29 30 30 31 31 32 33 34 34 34 35 35 35 34 34
18 14 14 15 12 12 15 15 13 10 3 5 11 14 23 29 27 29 31 29 29 31 33 32 32 33 33 33 36 37 38 41 43 43 41 43 46 43 36 34 36 37 38 41 42 42 41 40 40 41 42 40 37 36 34 31 29 30 31 32 31 29 29 30 32 32 32 32 32 29 27 25 25 25 25 25 25 26 27 28 29 29 29 29 30 30 31 32 33 34 34 34 34 35 35 34 33
16 16 19 20 17 15 17 18 18 13 4 4 5 6 25 38 34 31 29 24 26 31 34 35 36 37 37 38 40 41 42 45 45 43 43 46 46 42 36 34 36 37 38 40 41 42 42 40 39 40 40 39 35 32 31 29 27 28 30 31 31 29 29 30 30 31 31 33 32 29 27 25 25 24 25 25 25 26 27 28 29 29 29 29 29 30 30 31 32 33 33 33 33 34 34 34 34
17 24 25 21 18 15 11 11 18 19 13 12 7 7 29 43 35 29 27 23 30 37 37 38 39 38 39 40 42 45 46 47 45 44 46 48 47 43 36 34 35 36 38 40 41 41 41 40 39 39 40 39 35 31 29 27 26 26 28 30 30 29 29 30 29 29 31 33 32 29 27 26 24 24 24 25 26 27 27 28 29 29 29 29 29 30 30 31 32 33 33 33 33 34 33 33 33
Wind_Direction
214 212 212 212 213 215 216 217 225 229 238 252 256 260 261 256 255 263 270 273 274 277 279 276 275 275 273 271 267 266 263 255 252 235 241 260 263 267 271 277 286 289 292 295 299 302 304 306 309 310 310 309 308 306 307 307 309 309 308 307 306 306 306 304 302 300 298 298 299 300 301 302 303 304 305 305 304 304 304 305 306 308 311 312 312 312 312 312 312 312 312 311 311 309 308 307 307
212 207 204 208 207 209 220 228 231 240 242 245 255 256 256 256 256 265 271 274 277 278 277 277 278 279 276 275 270 268 264 256 255 248 250 260 264 271 275 280 285 288 293 296 300 305 308 310 311 311 310 310 309 309 310 311 311 309 308 308 308 308 306 304 303 301 301 301 301 302 304 306 308 308 307 307 307 308 309 310 312 313 315 316 315 314 314 314 313 312 311 310 308 307 306 306 305
206 204 193 199 208 202 202 228 233 238 243 246 260 249 243 253 259 266 273 279 280 277 277 279 279 278 276 272 266 264 264 262 262 257 255 263 267 271 276 281 285 289 295 299 305 310 311 311 312 311 311 311 311 311 312 313 312 310 311 312 312 311 308 306 305 304 304 304 305 307 309 310 310 309 308 309 310 312 313 313 315 316 316 315 314 313 313 312 312 311 310 309 308 308 308 308 308
193 205 192 177 192 205 202 230 240 242 253 261 271 260 247 252 257 268 283 288 283 279 279 280 278 278 275 268 269 266 266 271 273 267 264 270 271 272 278 282 286 293 299 305 309 311 310 310 310 311 312 313 313 314 315 315 314 315 316 317 316 314 311 310 308 307 306 307 308 310 310 309 308 308 309 310 312 314 315 316 315 314 313 312 311 311 311 311 312 312 312 313 312 312 311 311 310
178 194 201 179 170 210 223 235 247 247 253 262 276 280 272 264 265 277 291 291 286 283 282 281 279 278 275 270 272 267 270 279 276 273 274 276 275 275 280 284 290 297 304 309 310 310 309 309 310 310 312 314 315 316 316 316 316 318 320 319 318 315 314 312 310 309 308 309 309 309 308 307 307 307 309 311 312 314 315 315 314 312 312 312 312 313 313 314 315 315 315 314 312 311 310 309 309
169 170 193 194 190 214 223 236 244 246 251 254 264 273 272 269 274 284 289 289 287 284 282 281 280 278 275 274 273 270 275 279 276 278 282 280 278 279 283 289 296 303 307 309 309 310 310 311 311 312 315 316 317 317 317 318 318 320 321 320 318 317 316 314 311 309 309 309 308 307 306 305 306 308 309 310 311 313 314 314 314 314 314 314 315 315 316 316 315 315 313 311 310 309 308 308 307
166 158 181 204 217 224 218 237 245 249 257 253 254 260 266 270 276 282 285 285 283 282 281 278 279 276 273 275 274 276 276 276 281 284 286 284 282 285 289 296 302 307 310 310 311 312 313 313 314 315 317 317 317 318 319 320 321 321 321 320 318 318 317 315 312 310 309 308 307 306 304 304 306 308 308 309 311 313 314 314 315 315 316 316 316 316 316 316 314 313 311 310 309 309 309 309 309
153 145 208 216 232 250 232 239 248 255 262 260 258 260 266 273 277 279 279 280 281 280 279 277 279 273 273 278 274 280 278 279 291 287 284 287 288 292 296 300 304 308 310 312 315 317 317 316 316 316 317 318 319 320 321 322 322 322 322 321 319 319 319 316 314 310 309 308 306 304 303 304 305 306 306 308 311 313 315 315 317 316 316 317 317 317 316 315 314 313 312 312 312 312 312 312 312
136 139 220 212 220 254 250 250 254 259 262 262 265 267 270 276 277 276 277 279 279 278 278 276 276 272 276 280 275 284 287 287 294 285 286 291 292 296 299 304 308 313 315 317 320 320 319 316 316 318 321 322 322 321 321 321 322 323 322 320 319 318 319 317 314 311 309 307 304 302 302 303 304 304 306 309 312 313 315 316 317 317 317 317 317 317 316 315 315 315 315 315 315 315 315 314 314
136 216 220 211 238 256 255 259 257 256 263 267 270 272 272 275 275 276 277 277 278 277 277 275 274 274 279 280 278 289 293 290 292 286 289 293 294 298 301 309 314 319 321 320 321 322 323 320 321 324 325 324 322 321 319 320 321 321 321 319 318 318 319 316 313 310 307 305 302 302 301 303 303 304 307 310 311 313 314 316 316 317 317 317 317 317 317 318 318 318 318 318 318 317 317 317 316
176 272 259 227 248 259 259 264 256 251 264 277 281 278 275 276 276 277 277 275 277 275 276 279 278 277 280 280 281 290 295 289 290 288 291 294 297 302 306 313 317 321 321 320 322 324 328 327 325 325 324 323 322 320 317 318 319 320 321 319 319 318 318 315 311 308 305 303 302 302 302 303 303 305 308 310 311 313 313 314 315 316 317 318 319 320 320 321 321 321 321 321 320 320 319 318 318
169 247 274 254 252 257 264 274 270 261 268 280 285 283 280 279 277 277 277 274 275 276 279 283 282 280 281 281 281 290 298 291 290 291 294 299 303 308 312 316 318 320 319 319 323 324 326 327 325 324 322 321 320 319 317 316 318 319 320 321 320 319 317 313 309 306 304 303 303 303 304 305 305 307 309 310 311 311 312 313 314 316 318 320 321 322 323 323 323 323 323 322 322 321 320 319 318
169 204 248 261 263 264 268 277 282 273 274 284 286 285 283 281 278 277 275 272 276 280 283 283 280 280 281 281 282 290 295 290 290 293 299 305 308 313 315 318 319 319 318 317 321 321 321 322 323 323 324 323 321 320 318 316 318 319 320 322 321 319 317 313 309 306 306 306 306 306 306 306 307 308 309 309 309 309 311 313 315 317 320 321 322 324 324 324 324 324 324 323 322 321 320 319 318
199 207 229 249 257 268 270 270 276 275 280 287 289 292 288 281 278 276 276 275 278 280 285 287 280 278 280 279 283 290 294 292 291 296 304 308 311 315 315 317 318 317 315 314 316 316 316 317 319 322 325 326 324 324 322 318 318 319 320 322 321 319 316 312 310 308 308 308 308 307 307 307 307 307 307 307 308 310 312 313 315 318 320 322 323 324 324 324 324 323 323 322 321 321 320 319 318
253 248 250 253 253 267 275 269 269 277 282 284 293 302 289 281 280 278 278 277 277 280 286 291 284 278 280 275 277 288 300 306 300 301 307 311 313 315 314 315 315 314 311 309 309 309 310 311 314 319 321 323 324 324 323 319 317 318 318 320 320 318 316 313 312 311 311 311 309 309 308 307 306 306 306 306 308 309 311 312 315 317 319 321 322 323 323 323 323 322 322 322 321 321 320 319 319
275 269 263 260 264 273 277 278 276 277 275 280 295 299 286 284 284 279 280 278 278 284 288 287 284 282 280 278 280 288 300 309 306 306 310 310 312 312 311 311 309 307 304 302 302 304 305 307 310 312 313 315 316 317 318 318 316 316 316 318 318 318 317 316 315 314 313 313 312 311 310 308 306 305 305 305 306 307 308 311 313 315 317 319 320 320 321 321 321 321 321 321 321 321 320 320 320
273 273 266 268 286 280 269 273 277 275 272 280 293 291 285 284 283 281 281 278 279 284 286 285 285 284 278 281 289 289 294 305 307 308 310 310 310 308 306 304 302 300 299 299 300 301 302 304 305 306 306 306 307 308 309 312 313 314 314 314 315 317 317 317 318 317 317 316 315 313 312 310 307 305 303 302 303 304 306 308 311 313 315 316 317 318 319 320 320 320 321 321 321 321 321 321 321
274 279 280 282 288 271 259 263 273 278 276 281 289 288 286 283 284 282 278 279 281 284 287 286 286 287 280 280 290 291 293 303 307 308 309 307 306 303 300 296 295 295 295 297 298 299 298 300 301 302 302 302 302 302 302 304 306 309 311 312 313 316 317 318 319 320 319 318 316 315 313 311 308 305 301 300 300 301 303 305 308 310 311 312 314 316 317 318 319 320 320 321 321 322 322 321 321
280 277 272 271 271 265 267 270 276 282 279 283 290 289 287 285 288 286 282 284 282 284 291 289 286 288 282 280 289 294 296 302 306 307 307 304 300 297 293 291 291 292 292 294 295 296 297 298 298 299 299 299 299 298 298 298 298 300 304 307 310 313 316 318 319 320 320 319 317 315 313 311 308 305 302 300 299 300 301 303 305 305 307 309 312 314 315 317 318 319 320 321 321 322 321 321 321
283 278 266 259 261 267 271 272 276 280 278 283 287 288 287 286 290 292 292 286 282 291 296 289 287 287 281 279 287 294 297 301 304 304 303 300 295 291 291 292 293 293 294 296 297 296 297 298 297 297 298 298 298 297 297 296 295 296 298 302 306 309 312 314 317 318 319 318 317 315 313 311 309 307 304 302 300 300 300 300 302 303 306 308 311 313 314 316 317 318 319 320 320 321 322 322 323
283 280 272 266 266 270 275 277 279 277 277 283 286 289 289 286 289 295 295 288 292 300 297 289 288 285 281 281 284 291 296 299 301 299 297 294 290 288 290 293 296 296 297 300 302 299 300 300 299 299 298 298 298 298 297 297 296 296 297 300 303 306 308 311 314 315 317 317 317 315 313 311 309 308 306 304 303 301 300 300 301 303 306 308 311 313 314 315 316 317 318 320 321 323 324 324 325
282 281 276 277 274 272 281 285 280 278 279 283 287 290 290 288 291 296 293 292 302 302 293 291 289 284 281 282 284 290 295 297 298 295 291 287 285 286 289 292 294 295 297 301 303 301 302 302 300 300 298 298 298 298 297 297 297 297 299 301 303 305 307 309 311 313 315 316 317 316 314 313 311 309 308 307 306 304 303 302 302 304 306 309 311 312 313 314 316 317 319 321 324 325 326 326 326
283 283 280 280 276 275 284 287 281 281 283 282 286 294 295 292 294 296 290 294 306 298 291 291 287 284 281 280 283 288 293 295 295 292 287 283 281 285 289 291 293 294 295 299 301 299 300 300 299 299 298 296 296 296 296 296 297 299 301 303 305 307 308 310 311 313 314 315 317 317 316 315 313 311 309 309 308 308 307 305 305 306 308 309 310 310 312 314 316 318 321 323 326 327 327 327 326
281 283 287 285 280 281 286 287 285 283 285 287 292 299 298 295 296 293 292 299 302 290 284 284 283 283 282 281 283 285 288 292 293 290 284 281 281 284 287 289 293 295 294 297 300 298 298 299 298 298 296 295 294 294 294 295 297 300 303 306 308 310 311 312 313 314 315 316 317 317 317 315 315 313 311 310 310 310 310 309 307 307 307 307 308 310 312 315 317 320 323 326 327 327 327 327 327
280 287 294 290 287 289 290 288 288 287 291 294 299 301 299 299 296 294 303 308 301 290 280 279 283 283 282 281 281 281 283 288 291 288 285 283 283 285 288 292 293 294 294 297 298 297 299 299 298 297 295 293 292 292 292 294 297 302 306 308 310 313 313 314 315 315 316 316 317 317 316 315 315 314 312 311 311 311 311 310 308 306 306 307 308 310 313 317 319 323 325 327 327 327 327 328 327
293 300 300 296 294 294 293 293 293 295 298 299 302 302 301 300 294 300 324 312 294 292 287 284 285 284 284 283 279 280 281 284 287 287 286 285 286 290 294 294 292 292 293 295 296 298 299 299 298 297 294 292 291 291 292 294 299 303 307 310 313 315 316 317 317 317 317 316 316 315 315 314 314 314 313 311 311 312 312 311 309 307 307 308 310 313 316 318 321 324 327 327 327 328 328 328 327
304 307 302 300 298 297 298 300 301 303 303 303 305 303 302 300 294 307 334 306 291 291 291 292 289 287 288 286 281 280 280 282 285 285 285 286 290 294 295 293 292 293 292 293 296 298 299 299 299 296 293 291 290 290 292 295 300 304 308 311 314 316 318 318 318 318 317 316 314 314 314 314 315 315 314 312 312 313 313 312 310 309 310 311 313 315 317 320 323 325 326 327 328 329 328 327 327
311 309 305 304 302 304 307 306 308 312 310 308 310 304 303 301 296 310 322 306 299 296 296 297 294 291 288 285 284 281 280 282 282 281 283 288 293 295 295 294 293 293 292 294 296 298 299 299 299 297 295 293 292 292 293 297 302 305 309 312 315 317 318 318 318 318 316 315 313 313 314 315 316 316 315 313 313 314 314 314 312 312 312 313 314 316 318 321 324 325 326 328 328 328 328 328 328
316 312 311 314 314 314 317 317 316 321 316 313 315 308 306 311 306 312 312 304 304 302 299 297 292 291 287 284 283 282 281 281 279 280 284 289 293 295 297 297 294 293 294 296 298 300 301 300 300 299 297 295 295 295 297 300 303 306 310 313 315 317 318 318 318 317 315 314 313 313 315 316 317 317 316 315 315 315 315 315 315 314 314 314 315 317 320 322 324 326 327 328 328 328 328 328 329
324 322 324 329 330 328 329 326 321 320 317 316 318 307 306 319 315 312 309 307 311 308 302 296 290 286 285 283 280 280 280 280 280 281 284 290 294 296 300 302 301 298 297 299 302 305 304 302 301 301 300 299 298 299 301 303 304 306 310 313 315 317 318 317 317 316 315 314 313 314 316 317 317 317 317 316 316 316 317 317 316 316 315 315 317 319 321 323 325 326 327 328 328 329 329 330 330
341 334 338 342 335 329 324 322 321 320 316 317 317 305 305 318 315 309 310 309 308 305 301 298 293 289 287 287 284 282 279 279 280 280 285 295 298 299 303 306 305 302 300 302 305 306 306 304 303 302 303 303 302 302 303 305 306 308 310 312 314 316 317 316 316 315 314 313 313 314 316 317 317 317 317 316 316 317 318 318 318 317 316 316 318 319 321 323 325 326 328 328 329 329 330 330 329
345 339 345 346 332 318 316 318 322 321 316 316 315 303 304 315 317 310 308 307 304 302 301 299 298 295 293 291 289 287 284 282 280 280 290 300 299 300 307 308 306 303 301 303 305 305 306 306 305 304 304 305 305 305 305 306 308 310 312 313 314 315 315 315 315 314 314 313 313 314 315 317 318 318 317 316 317 318 319 319 319 317 316 316 318 319 322 324 325 326 328 329 329 330 331 330 329
339 338 334 330 319 311 311 316 320 318 313 313 312 303 304 314 320 314 309 308 307 304 302 300 298 294 293 291 287 286 285 283 281 281 294 303 300 302 308 307 305 304 302 302 304 305 306 307 307 306 304 305 307 307 306 307 308 310 311 312 313 314 314 314 314 313 313 312 313 314 315 317 318 318 318 317 318 319 320 320 319 316 315 316 318 320 323 325 326 327 328 330 330 330 330 329 328
328 321 315 312 311 307 308 316 318 314 310 310 308 303 307 315 319 319 318 316 311 307 306 304 301 298 299 296 288 284 280 280 280 280 294 303 301 304 308 305 303 303 302 302 303 304 305 307 308 307 305 305 307 308 307 308 307 308 310 311 311 312 312 312 312 312 312 311 312 313 315 317 318 318 317 317 318 319 320 320 318 316 315 316 319 322 324 325 326 327 329 331 330 330 330 329 328
324 317 315 316 319 314 315 320 315 307 306 308 306 304 309 315 317 320 324 321 311 304 304 303 300 299 302 301 293 288 282 279 279 279 294 302 298 300 303 302 302 302 301 301 302 304 305 307 308 308 307 306 307 308 309 308 306 306 308 309 310 310 310 310 311 311 311 311 311 313 315 316 318 318 317 317 318 319 320 320 317 315 315 318 320 322 324 325 327 328 330 331 330 330 330 329 330
326 321 320 320 319 318 323 323 312 305 301 302 307 308 310 313 316 320 321 316 306 302 304 304 299 295 298 299 292 288 284 279 277 281 292 296 294 298 302 304 306 304 302 302 302 304 305 307 309 310 309 308 308 309 309 308 305 305 306 306 307 308 308 310 310 310 310 310 311 313 314 316 317 317 316 316 317 319 320 319 317 316 316 318 321 322 324 325 327 329 330 330 330 330 331 330 330
329 324 322 322 319 319 325 319 309 305 299 300 309 312 309 311 317 322 318 309 306 316 321 317 312 303 297 296 291 290 287 278 277 282 288 293 298 303 305 309 312 309 306 304 303 305 306 309 312 312 311 310 310 310 309 308 306 305 304 304 305 306 307 309 309 309 309 310 311 313 313 315 316 316 315 316 317 319 320 319 317 316 317 319 320 322 324 326 328 329 330 330 331 331 332 331 331
332 325 322 324 326 319 314 311 308 309 303 304 315 313 307 314 321 325 324 312 315 329 331 325 317 309 304 300 294 293 293 285 282 286 290 298 305 307 309 310 311 312 311 309 306 306 309 312 315 315 313 312 312 311 310 308 306 305 304 304 303 304 306 307 308 308 308 310 312 312 313 315 316 316 315 315 317 320 320 319 317 316 317 318 320 322 324 326 328 329 330 331 331 332 332 332 331
336 329 318 317 326 320 312 314 316 316 308 309 318 312 308 320 324 329 336 327 326 331 331 330 318 309 308 303 296 299 308 294 272 275 285 293 297 303 308 306 308 313 315 315 313 312 315 318 318 317 316 314 313 312 310 308 306 304 304 303 302 302 304 305 307 308 308 311 312 313 314 315 316 316 315 314 316 319 320 319 318 317 317 318 320 323 325 326 328 329 331 332 332 332 333 332 332
342 334 316 305 317 320 315 319 322 317 309 311 317 309 311 325 330 331 335 327 329 329 327 331 326 318 318 307 289 276 274 262 262 275 284 288 291 297 302 303 308 315 317 318 320 321 322 322 320 318 317 315 314 312 310 308 305 303 303 302 301 302 303 304 305 307 309 311 312 313 314 315 316 316 315 315 316 319 320 320 319 317 317 318 320 323 325 326 328 330 331 332 332 333 333 332 332
344 339 322 305 313 318 315 319 320 315 313 314 314 309 312 322 332 333 332 325 326 324 322 330 333 331 325 310 286 250 261 273 283 296 298 300 305 306 307 309 314 317 317 319 322 324 323 322 320 317 316 314 313 312 310 307 304 302 302 300 300 301 301 301 303 305 308 310 311 312 314 315 316 316 315 315 316 318 320 320 320 318 317 319 320 323 325 326 328 330 332 332 332 332 333 332 333
340 343 332 313 314 317 315 319 318 315 318 316 317 320 311 315 333 352 346 329 327 327 331 339 343 343 332 321 317 259 279 278 276 286 295 307 316 317 316 315 317 319 320 320 321 322 320 319 318 315 313 312 311 310 309 307 304 301 299 298 299 299 299 300 300 302 306 308 308 310 312 314 316 316 315 314 316 318 320 321 320 318 317 318 320 323 325 327 329 331 332 332 332 332 333 333 333
333 339 331 319 319 319 316 319 314 308 310 306 308 299 287 312 342 12 343 331 338 4 2 355 351 347 340 339 327 261 272 282 287 290 299 314 321 322 320 316 317 320 321 321 320 319 318 317 316 314 312 309 308 307 306 306 304 301 298 297 297 298 298 298 298 301 305 305 306 308 312 314 316 316 316 314 315 318 320 321 320 318 317 318 320 323 325 327 329 331 332 332 332 332 333 333 334
329 334 330 325 325 323 319 317 306 304 308 311 314 280 264 302 343 356 340 337 355 4 360 360 355 347 342 332 295 279 291 304 304 299 306 318 323 323 323 321 321 320 320 320 318 316 314 314 314 313 311 308 306 305 304 304 304 301 298 295 296 297 297 297 297 299 303 304 305 309 312 315 317 317 317 315 315 317 320 321 320 318 317 318 321 323 325 327 329 331 332 332 332 333 333 334 334
330 333 330 331 332 328 325 313 305 314 312 313 324 305 253 285 318 339 343 342 346 347 341 338 340 334 321 308 282 281 295 299 299 305 315 322 325 326 326 324 321 318 317 317 317 315 313 312 311 310 309 307 304 302 301 301 301 301 299 295 294 295 296 296 297 299 302 304 305 308 311 315 316 317 317 315 314 316 319 321 321 318 317 319 321 323 325 327 329 331 332 332 332 333 334 335 335
330 331 329 334 338 336 329 309 308 325 313 310 332 360 296 296 317 333 342 343 346 342 325 322 331 333 307 291 278 280 286 289 297 310 320 324 325 326 324 320 317 316 316 316 315 315 313 312 310 308 307 305 303 301 299 298 298 299 299 297 294 292 294 295 297 298 299 301 303 306 310 313 315 316 316 315 313 315 318 321 320 317 316 318 320 323 324 326 329 331 332 332 332 334 335 335 336
329 332 335 339 345 346 336 319 319 328 304 349 10 355 336 314 319 328 336 344 339 323 315 316 332 341 313 295 289 285 287 293 302 314 322 324 322 320 319 319 318 317 319 318 316 314 312 310 308 306 306 304 303 301 298 296 295 296 297 297 294 291 291 293 296 297 297 299 302 303 308 312 313 316 316 314 313 315 318 320 320 316 315 317 320 322 323 326 329 331 333 332 333 334 335 336 336
335 340 346 346 349 354 348 343 352 337 296 359 347 333 329 306 313 328 341 341 323 318 332 336 339 339 325 313 305 298 299 303 310 318 322 322 319 315 316 319 319 319 322 321 318 315 311 309 307 306 305 304 304 301 299 296 293 294 295 296 295 290 288 290 294 296 295 298 301 303 307 311 313 315 316 314 313 315 318 320 319 315 314 316 319 321 323 325 329 331 332 332 333 335 336 336 337
343 350 356 354 351 351 353 352 348 306 304 323 324 323 317 297 309 329 337 327 320 337 353 347 339 334 326 322 319 315 312 310 313 315 316 319 318 318 321 323 322 322 324 323 320 316 312 309 308 307 306 305 304 302 300 295 292 291 292 294 294 290 287 288 292 294 295 297 300 303 307 310 313 315 315 314 313 314 317 318 317 314 313 316 318 321 323 326 329 331 331 332 333 335 336 336 337
349 356 356 356 355 345 343 327 327 312 304 313 318 315 303 301 314 323 322 320 322 358 0 351 340 331 323 322 322 318 312 305 306 307 311 316 317 319 321 321 321 321 322 322 320 316 312 309 308 307 305 303 301 300 299 295 291 290 290 291 292 290 287 287 289 292 294 296 300 303 306 309 312 314 314 313 312 313 315 317 316 314 314 316 319 321 322 325 328 330 331 331 333 335 336 336 337
353 354 353 353 354 346 313 301 313 296 298 309 316 310 296 301 312 319 323 322 317 334 343 344 337 329 325 325 323 315 306 304 308 311 312 313 314 316 317 318 320 320 320 320 319 316 314 312 310 308 305 302 298 296 295 293 291 289 289 290 291 290 287 286 288 291 292 295 299 302 305 308 311 313 314 313 312 313 315 316 316 314 315 317 318 320 321 324 327 329 330 331 333 335 336 336 337
352 347 352 351 336 317 283 286 292 284 286 302 307 298 298 302 309 319 326 319 311 308 315 322 323 320 321 323 319 309 303 303 310 317 318 317 318 319 321 322 321 319 319 320 319 318 316 316 313 310 306 303 299 295 293 292 291 290 289 290 292 290 287 285 287 289 291 294 298 301 303 306 310 312 312 312 312 313 314 315 316 315 315 316 317 318 320 323 326 328 329 331 333 335 336 336 337
347 343 342 338 331 314 291 288 297 292 277 291 299 297 302 307 312 320 321 314 314 312 312 315 315 315 320 320 311 304 302 302 309 317 321 322 323 325 325 324 321 320 321 321 321 320 319 318 316 312 308 305 304 301 296 293 293 291 290 291 292 290 287 285 286 288 290 293 296 300 302 305 308 310 311 312 312 313 313 314 316 316 315 315 316 317 320 323 326 327 329 331 333 335 336 336 336
342 340 338 338 333 323 306 280 295 306 279 294 300 297 301 305 307 311 315 316 316 314 314 313 310 314 321 320 308 300 301 304 310 317 322 325 326 328 328 326 324 323 321 320 322 323 324 323 321 317 312 308 306 305 301 296 292 290 290 291 291 289 285 283 284 286 289 291 295 299 300 302 305 307 309 311 313 312 312 313 315 316 315 315 316 317 320 323 325 327 328 330 333 334 335 336 336
334 331 337 339 333 322 310 291 296 306 282 289 296 297 298 298 304 311 314 316 314 314 316 314 310 313 319 316 307 303 303 307 313 320 325 326 327 329 330 326 323 321 319 319 321 324 328 329 327 324 320 315 309 305 300 294 290 288 289 292 291 285 281 280 282 285 288 290 294 297 298 300 303 305 308 311 313 312 311 312 314 316 316 315 316 317 319 323 324 326 328 330 333 334 334 336 335
333 327 330 329 319 311 305 299 293 286 262 274 292 296 291 295 308 315 312 312 313 317 320 315 309 310 311 308 305 305 306 311 317 321 325 326 327 329 328 322 319 318 318 320 321 323 328 333 335 333 330 323 314 306 300 295 291 288 290 295 293 285 279 278 280 284 287 290 292 295 296 298 300 302 306 311 313 311 309 309 312 316 317 315 316 317 318 322 323 325 327 330 332 333 334 335 335
336 323 320 318 311 310 307 298 291 286 261 269 300 280 284 298 316 319 313 313 314 316 317 311 307 305 304 303 303 304 307 312 318 320 322 324 325 328 325 319 318 319 320 322 324 325 327 333 338 340 340 334 321 310 304 300 295 291 295 300 298 288 280 278 280 284 287 288 290 294 294 295 297 300 305 310 312 310 307 307 310 314 317 316 316 316 318 321 323 324 327 330 332 333 333 334 335
328 321 318 316 308 304 302 295 297 297 281 275 284 261 287 305 323 321 313 313 312 315 315 311 310 306 300 298 299 301 305 311 315 317 320 322 323 326 324 319 320 321 322 325 327 329 329 332 338 341 344 344 334 321 312 308 301 297 302 306 303 293 284 281 282 284 287 287 289 293 294 294 296 298 304 309 310 309 307 306 309 313 316 317 315 316 317 319 321 323 326 329 331 332 333 333 334